Regional Weather Roundup
Issued by NWS

Home | Current Version | Previous Version | Graphics & Text | Print | Product List | Glossary On
Versions: 1 2 3 4 5 6 7 8 9 10 11 12 13 14 15 16 17 18 19 20 21 22 23 24 25 26 27
000
ASUS45 KBOU 261707
RWRCO

WEATHER ROUNDUP FOR COLORADO
NATIONAL WEATHER SERVICE DENVER/BOULDER CO
1100 AM MDT MON JUN 26 2017

NOTE: "FAIR" INDICATES FEW OR NO CLOUDS BELOW 12000 FEET WITH NO
SIGNIFICANT WEATHER AND/OR OBSTRUCTIONS TO VISIBILITY.

COZ001>005-013-030-031-261800-
...NORTHWEST COLORADO...

CITY           SKY/WX    TMP DP  RH WIND       PRES   REMARKS
CRAIG          FAIR      79  35  20 VRB3      30.28F
HAYDEN         FAIR      73  37  27 E6        30.30F
MEEKER         FAIR      77  30  17 S5        30.28F
RABBIT EARS PA FAIR      61  32  33 CALM      30.59S
STEAMBOAT SPGS FAIR      69  37  30 CALM      30.32F
WALDEN         FAIR      68  32  26 S3        30.43F
$$

COZ006>008-011-261800-
...WEST CENTRAL VALLEYS...

CITY           SKY/WX    TMP DP  RH WIND       PRES   REMARKS
GRAND JUNCTION FAIR      85  29  13 SE13      30.16F
MONTROSE       FAIR      83  40  21 NW6       30.24F
EAGLE          SUNNY     72  36  26 S5        30.35F
RIFLE          FAIR      79  34  19 CALM      30.23F
DELTA          FAIR      83  29  14 CALM      30.21F
NUCLA          NOT AVBL
$$

COZ017>023-064>068-261800-
...SOUTHWEST COLORADO...

CITY           SKY/WX    TMP DP  RH WIND       PRES   REMARKS
DURANGO        FAIR      75  42  30 VRB7      30.34F
CORTEZ         FAIR      83  44  25 W8        30.26F
PAGOSA SPRINGS FAIR      72  38  28 S7        30.41F
TELLURIDE      FAIR      74  18  12 W10       30.49F
WOLF CREEK PAS FAIR      59  36  41 CALM      30.74S
$$

COZ009-010-012-014-032>034-037-058>063-261800-
...CENTRAL COLORADO...

CITY           SKY/WX    TMP DP  RH WIND       PRES   REMARKS
ASPEN          FAIR      74  31  20 VRB6      30.37F
BUENA VISTA    FAIR      70  38  31 SE6       30.42F
COPPER MTN     FAIR      61  21  21 CALM      30.69S
BERTHOUD PASS  FAIR      46  34  61 NW10G17   30.72F
COTTONWOOD PAS FAIR      66  41  39 NE5       30.55F
GUNNISON       FAIR      70  42  36 VRB3      30.40F
KREMMLING      NOT AVBL
LEADVILLE      FAIR      63  23  21 VRB5      30.52F
MONARCH PASS   FAIR      57  32  38 SW14G20   30.79F
SALIDA         FAIR      74  47  39 SE5       30.45F
SUNLIGHT       FAIR      61  23  23 CALM      30.63F
WILKERSON PASS FAIR      55  36  47 W3        30.67F
$$

COZ069>075-261800-
...SAN LUIS VALLEY/SANGRE DE CRISTO MOUNTAINS...

CITY           SKY/WX    TMP DP  RH WIND       PRES   REMARKS
ALAMOSA        FAIR      68  46  45 S6        30.41F
DEL NORTE      FAIR      67  46  48 E8        30.44F
LA VETA PASS   FAIR      63  45  51 MISG      30.69S
SAGUACHE       FAIR      68  46  45 SE6       30.44F
$$

COZ035-036-038>040-261800-
...NORTHERN COLORADO FRONT RANGE...

CITY           SKY/WX    TMP DP  RH WIND       PRES   REMARKS
DENVER INTL AP FAIR      76  49  38 W7        30.25F
DMNS CITY PARK   N/A     75  52  45 N10G16    30.25F
AURORA         MOSUNNY   73  51  46 N3        30.27F
FRONT RANGE AP FAIR      77  50  38 N7        30.27F
ERIE MUNI ARPT FAIR      72  55  54 CALM      30.25F
BOULDER MUN AP FAIR      72  48  43 N3        30.25F
CENTENNIAL     FAIR      74  52  46 N7        30.28F
BROOMFIELD     MOSUNNY   72  54  53 CALM      30.28S
FORT COLLINS   FAIR      75  50  41 VRB3      30.24F
LONGMONT       FAIR      77  53  42 N5        30.25F
$$

COZ041-046-047-076>085-087-088-261800-
...PIKES PEAK/PALMER DIVIDE AND SOUTHERN FOOTHILLS...

CITY           SKY/WX    TMP DP  RH WIND       PRES   REMARKS
COLO. SPRINGS  FAIR      69  57  65 SE5       30.32F
A. F. ACADEMY  FAIR      71  55  58 SE3       30.32F
SCHRIEVER AFB  FAIR      68  57  67 SW5       30.33F
CHEYENNE MTN   FAIR      69  58  68 SE8       30.31F
ELLICOTT       FAIR     N/A N/A N/A W7        30.30F
FALCON           N/A     73  50  44 S6        30.36F
FORT CARSON    FAIR      72  58  59 S3        30.29F
LIMON          FAIR      78  53  41 S8        30.25F
MONUMENT HILL  FAIR      73  32  21 NE3       30.37S
CANON CITY     SUNNY     79  61  53 CALM      30.25F
WALSENBURG     FAIR      75  59  57 SE6       30.31F
TRINIDAD       FAIR      71  54  54 VRB5      30.31F
$$

COZ042>045-048>051-090-091-261800-
...NORTHEAST COLORADO...

CITY           SKY/WX    TMP DP  RH WIND       PRES   REMARKS
GREELEY ARPT   FAIR      75  58  55 VRB3      30.23F
AKRON          FAIR      78  53  41 VRB3      30.23F
BURLINGTON     FAIR      77  54  44 SW5       30.22F
WRAY           FAIR      79  57  47 E3        30.20F
YUMA           FAIR      73  46  38 E6        30.21F
STERLING       FAIR      75  59  57 CALM      30.20F
HOLYOKE        NOT AVBL
FORT MORGAN    FAIR      77  55  46 CALM      30.23F
$$

COZ086-089-092>099-261800-
...SOUTHEAST COLORADO...

CITY           SKY/WX    TMP DP  RH WIND       PRES   REMARKS
PUEBLO         FAIR      78  58  49 CALM      30.23F
LA JUNTA       FAIR      76  59  55 SW6       30.22F
LAMAR          FAIR      77  58  51 VRB5      30.19F
SPRINGFIELD      N/A     79  58  48 W7        30.22F
$$




USA.gov is the U.S. government's official web portal to all federal, state and local government web resources and services.